OPTUS D3

Last updated on Fri Dec 19 2025 00:02:49 GMT+0000 (Coordinated Universal Time)

1 35756U 09044B 25352.50638072 -.00000120 00000+0 00000+0 0 9993 2 35756 0.8682 270.6184 0003208 23.6040 131.5805 1.00269886 59757
UTC large
Height (km)
Speed (km/s)
/
Latitude / Longitude
Inclination (degrees)
Orbital Period (minutes)
Azimuth
Elevation
Range (km)
Doppler Factor

Next 0 passes for location: London (51.5072 / 0.1276)

Sorry there are no passes over London.